FW7612 Weather Reports


Display with metric or nautical units.
time (UTC)temp
F
wind
direction
speed
MPH
gust
MPH
rain 1hr
in
rain 24hr
in
rain mn
in
humidity
%
barometer
mb
20260506050957 57 213 19.0 30.0 0.00 0.00 0.00 87 1013.1
20260506050458 57 215 15.0 30.0 0.00 0.00 0.00 86 1013.2
20260506044957 57 214 14.0 30.0 0.00 0.00 0.00 86 1013.3
20260506044457 57 212 17.0 30.0 0.00 0.00 0.00 86 1013.1
20260506043957 57 218 16.0 32.0 0.00 0.00 0.00 85 1013.2
20260506043457 57 216 18.0 36.0 0.00 0.00 0.00 85 1013.0
20260506042957 57 216 14.0 34.0 0.00 0.00 0.00 85 1013.1
20260506042457 57 219 16.0 33.0 0.00 0.00 0.00 84 1013.1
20260506042000 57 217 14.0 32.0 0.00 0.00 0.00 84 1013.2
20260506041457 57 215 11.0 28.0 0.00 0.00 0.00 83 1013.2
20260506040957 58 221 17.0 33.0 0.00 0.00 0.00 83 1013.1
20260506040458 58 215 17.0 38.0 0.00 0.00 0.00 83 1013.0
20260506035958 58 219 16.0 39.0 0.00 0.00 0.00 84 1013.0
20260506035458 57 211 17.0 32.0 0.00 0.00 0.00 84 1012.9
20260506034958 57 219 15.0 33.0 0.00 0.00 0.00 83 1013.3
20260506034458 57 216 16.0 31.0 0.00 0.00 0.00 83 1012.9
20260506033958 58 217 15.0 33.0 0.00 0.00 0.00 83 1012.9
20260506033458 58 219 16.0 30.0 0.00 0.00 0.00 82 1012.7
20260506032958 58 215 13.0 32.0 0.00 0.00 0.00 82 1012.8
20260506032458 58 213 15.0 36.0 0.00 0.00 0.00 82 1012.9
20260506031959 58 209 12.0 35.0 0.00 0.00 0.00 82 1012.9
20260506031458 58 218 13.0 31.0 0.00 0.00 0.00 81 1012.8
20260506030958 58 217 20.0 40.0 0.00 0.00 0.00 82 1012.7
20260506030458 58 216 12.0 31.0 0.00 0.00 0.00 81 1012.7
20260506025958 58 220 14.0 37.0 0.00 0.00 0.00 81 1012.6
20260506025458 58 218 15.0 36.0 0.00 0.00 0.00 81 1012.5
20260506024958 58 217 17.0 33.0 0.00 0.00 0.00 80 1012.6
20260506024458 58 218 16.0 41.0 0.00 0.00 0.00 80 1012.5
20260506023958 59 213 16.0 40.0 0.00 0.00 0.00 80 1012.5
20260506023458 59 220 19.0 35.0 0.00 0.00 0.00 80 1012.6
20260506022958 59 217 18.0 38.0 0.00 0.00 0.00 79 1012.5
20260506022457 58 217 15.0 36.0 0.00 0.00 0.00 79 1012.7
20260506021958 59 211 14.0 30.0 0.00 0.00 0.00 79 1012.8
20260506021458 59 215 16.0 28.0 0.00 0.00 0.00 78 1012.9
20260506020958 59 212 13.0 39.0 0.00 0.00 0.00 77 1013.0
20260506020458 59 215 16.0 30.0 0.00 0.00 0.00 77 1012.8
20260506015958 59 215 16.0 29.0 0.00 0.00 0.00 77 1012.8
20260506015458 59 207 13.0 30.0 0.00 0.00 0.00 77 1012.8
20260506014958 59 218 14.0 28.0 0.00 0.00 0.00 76 1012.9
20260506014458 59 225 17.0 32.0 0.00 0.00 0.00 76 1013.0
20260506013958 58 217 12.0 34.0 0.00 0.00 0.00 76 1013.0
20260506013458 58 214 12.0 28.0 0.00 0.00 0.00 76 1012.9
20260506012958 58 209 9.0 24.0 0.00 0.00 0.00 76 1012.8
20260506012457 58 212 10.0 34.0 0.00 0.00 0.00 76 1012.8
20260506011958 58 213 14.0 31.0 0.00 0.00 0.00 76 1012.8
20260506011458 58 214 13.0 34.0 0.00 0.00 0.00 76 1012.7
20260506010958 58 214 12.0 25.0 0.00 0.00 0.00 76 1012.8
20260506010456 58 206 11.0 29.0 0.00 0.00 0.00 75 1012.7
20260506005957 58 216 15.0 29.0 0.00 0.00 0.00 75 1012.6
20260506005458 58 210 13.0 24.0 0.00 0.00 0.00 74 1012.4
20260506004958 58 220 11.0 24.0 0.00 0.00 0.00 73 1012.5
20260506004458 58 208 13.0 28.0 0.00 0.00 0.00 72 1012.2
20260506003958 58 210 16.0 28.0 0.00 0.00 0.00 72 1012.1
20260506003458 58 214 11.0 28.0 0.00 0.00 0.00 71 1011.9
20260506002958 57 209 16.0 28.0 0.00 0.00 0.00 71 1011.5
20260506002458 58 203 11.0 28.0 0.00 0.00 0.00 71 1011.7
20260506001958 57 194 12.0 29.0 0.00 0.00 0.00 71 1011.3
20260506001458 58 208 13.0 32.0 0.00 0.00 0.00 71 1011.4
20260506000958 58 204 12.0 28.0 0.00 0.00 0.00 71 1011.4
20260506000458 58 210 14.0 28.0 0.00 0.00 0.00 70 1011.5
20260505235958 58 209 13.0 26.0 0.00 0.00 0.00 70 1011.6
20260505235458 58 220 13.0 28.0 0.00 0.00 0.00 70 1011.5
20260505234958 58 211 13.0 38.0 0.00 0.00 0.00 69 1011.6
20260505234458 58 207 14.0 34.0 0.00 0.00 0.00 69 1011.4
20260505233959 58 216 18.0 34.0 0.00 0.00 0.00 68 1011.4
20260505233458 59 217 15.0 32.0 0.00 0.00 0.00 69 1011.4
20260505232958 59 215 15.0 30.0 0.00 0.00 0.00 69 1011.3
20260505232457 59 215 12.0 27.0 0.00 0.00 0.00 69 1011.2
20260505231958 59 221 15.0 31.0 0.00 0.00 0.00 70 1011.3
20260505231457 59 208 16.0 35.0 0.00 0.00 0.00 70 1011.1
20260505230958 59 214 13.0 31.0 0.00 0.00 0.00 72 1011.1
20260505230458 59 214 17.0 32.0 0.00 0.00 0.00 72 1011.1
20260505225958 59 214 14.0 27.0 0.00 0.00 0.00 73 1011.1
20260505225458 59 212 13.0 32.0 0.00 0.00 0.00 73 1011.1
20260505224958 59 208 13.0 32.0 0.00 0.00 0.00 72 1011.0
20260505224458 60 215 15.0 31.0 0.00 0.00 0.00 72 1010.8
20260505223958 60 217 17.0 31.0 0.00 0.00 0.00 72 1010.9
20260505223458 60 207 16.0 27.0 0.00 0.00 0.00 71 1010.8
20260505222958 60 212 15.0 30.0 0.00 0.00 0.00 71 1010.9
20260505222457 61 208 13.0 29.0 0.00 0.00 0.00 71 1011.1
20260505221958 61 215 15.0 30.0 0.00 0.00 0.00 71 1010.8
20260505221458 61 214 13.0 34.0 0.00 0.00 0.00 71 1010.7
20260505220958 61 218 17.0 35.0 0.00 0.00 0.00 70 1010.7
20260505220458 61 220 19.0 35.0 0.00 0.00 0.00 69 1010.8
20260505215958 62 208 18.0 31.0 0.00 0.00 0.00 69 1010.7
20260505215457 62 208 15.0 35.0 0.00 0.00 0.00 69 1010.7
20260505214957 62 206 12.0 25.0 0.00 0.00 0.00 69 1010.9
20260505214458 62 212 13.0 29.0 0.00 0.00 0.00 69 1010.6
20260505213958 62 202 12.0 29.0 0.00 0.00 0.00 68 1010.9
20260505213458 62 213 17.0 37.0 0.00 0.00 0.00 68 1010.7
20260505212958 62 212 17.0 33.0 0.00 0.00 0.00 68 1010.8
20260505212457 62 212 18.0 30.0 0.00 0.00 0.00 68 1010.7
20260505211958 62 209 17.0 35.0 0.00 0.00 0.00 68 1010.7
20260505211458 62 210 14.0 31.0 0.00 0.00 0.00 68 1010.6
20260505210958 62 215 20.0 34.0 0.00 0.00 0.00 67 1010.4
20260505210457 62 204 12.0 35.0 0.00 0.00 0.00 68 1010.3
20260505205958 63 213 13.0 31.0 0.00 0.00 0.00 68 1010.7
20260505205458 63 210 15.0 34.0 0.00 0.00 0.00 67 1010.9
20260505204957 63 214 13.0 31.0 0.00 0.00 0.00 67 1010.4
20260505204458 63 211 14.0 29.0 0.00 0.00 0.00 68 1010.2
20260505203957 63 203 10.0 28.0 0.00 0.00 0.00 68 1010.3
20260505203458 63 214 15.0 29.0 0.00 0.00 0.00 67 1010.4
20260505202956 63 209 12.0 37.0 0.00 0.00 0.00 68 1010.4
20260505202457 63 213 16.0 31.0 0.00 0.00 0.00 67 1010.3
20260505201957 63 208 14.0 35.0 0.00 0.00 0.00 67 1010.4
20260505201457 63 199 11.0 32.0 0.00 0.00 0.00 66 1010.4
20260505200957 64 201 12.0 29.0 0.00 0.00 0.00 65 1010.5
20260505200457 64 203 11.0 34.0 0.00 0.00 0.00 66 1010.6
20260505195957 64 205 13.0 32.0 0.00 0.00 0.00 65 1010.5
20260505195457 64 206 10.0 27.0 0.00 0.00 0.00 66 1010.6
20260505194956 64 216 14.0 28.0 0.00 0.00 0.00 66 1010.7
20260505194457 64 212 18.0 33.0 0.00 0.00 0.00 65 1010.7
20260505193956 64 212 14.0 25.0 0.00 0.00 0.00 65 1010.7
20260505193457 64 214 15.0 33.0 0.00 0.00 0.00 65 1010.6
20260505192957 64 208 13.0 31.0 0.00 0.00 0.00 65 1010.6
20260505192457 64 213 10.0 33.0 0.00 0.00 0.00 66 1010.7
20260505191956 64 210 11.0 36.0 0.00 0.00 0.00 67 1010.9
20260505191455 65 210 12.0 28.0 0.00 0.00 0.00 65 1010.7
20260505190956 64 219 15.0 33.0 0.00 0.00 0.00 66 1010.8
20260505190456 65 212 15.0 31.0 0.00 0.00 0.00 64 1010.8
20260505185956 65 210 13.0 25.0 0.00 0.00 0.00 65 1010.8
20260505185456 65 216 18.0 32.0 0.00 0.00 0.00 64 1010.7
20260505184956 65 215 15.0 30.0 0.00 0.00 0.00 65 1010.8
20260505184456 65 215 14.0 29.0 0.00 0.00 0.00 65 1010.7
20260505183956 64 209 15.0 29.0 0.00 0.00 0.00 65 1010.9
20260505183456 65 208 15.0 31.0 0.00 0.00 0.00 64 1010.9
20260505182956 65 213 13.0 30.0 0.00 0.00 0.00 64 1011.1
20260505182456 66 212 10.0 26.0 0.00 0.00 0.00 64 1011.0
20260505181956 65 211 9.0 32.0 0.00 0.00 0.00 66 1011.1
20260505181456 65 210 14.0 29.0 0.00 0.00 0.00 65 1011.0
20260505180955 64 210 14.0 31.0 0.00 0.00 0.00 66 1011.1
20260505180456 66 200 9.0 23.0 0.00 0.00 0.00 64 1011.1
20260505175956 65 215 12.0 30.0 0.00 0.00 0.00 65 1011.2
20260505175456 66 202 13.0 27.0 0.00 0.00 0.00 63 1011.2
20260505174956 67 198 11.0 27.0 0.00 0.00 0.00 63 1011.1
20260505174455 67 205 13.0 26.0 0.00 0.00 0.00 63 1011.1
20260505173955 67 195 9.0 21.0 0.00 0.00 0.00 63 1011.3
20260505173456 67 206 10.0 27.0 0.00 0.00 0.00 62 1011.3
20260505172956 67 208 8.0 21.0 0.00 0.00 0.00 64 1011.6
20260505172456 67 213 12.0 24.0 0.00 0.00 0.00 63 1011.6
20260505171956 67 208 7.0 19.0 0.00 0.00 0.00 64 1011.6
20260505171456 67 202 10.0 23.0 0.00 0.00 0.00 64 1011.6
20260505170957 66 205 6.0 25.0 0.00 0.00 0.00 65 1011.6
20260505170456 65 192 11.0 23.0 0.00 0.00 0.00 65 1011.7
20260505165955 65 193 9.0 23.0 0.00 0.00 0.00 65 1011.6
20260505165455 66 202 12.0 26.0 0.00 0.00 0.00 64 1011.7
20260505164955 66 205 7.0 20.0 0.00 0.00 0.00 65 1011.6
20260505164455 66 212 10.0 24.0 0.00 0.00 0.00 64 1011.8
20260505163955 67 204 13.0 18.0 0.00 0.00 0.00 63 1011.8
20260505163456 66 196 8.0 20.0 0.00 0.00 0.00 65 1011.8
20260505162957 65 203 9.0 24.0 0.00 0.00 0.00 65 1012.1
20260505162457 65 203 9.0 31.0 0.00 0.00 0.00 66 1012.0
20260505161957 64 216 12.0 26.0 0.00 0.00 0.00 67 1012.0
20260505161456 65 208 12.0 25.0 0.00 0.00 0.00 66 1012.1
20260505160956 65 215 13.0 24.0 0.00 0.00 0.00 65 1012.0
20260505160455 65 203 9.0 23.0 0.00 0.00 0.00 66 1011.9
20260505152955 64 192 8.0 22.0 0.00 0.00 0.00 68 1012.2
20260505152457 64 192 15.0 28.0 0.00 0.00 0.00 66 1012.2
20260505151956 65 206 12.0 25.0 0.00 0.00 0.00 66 1012.1
20260505151456 64 207 10.0 24.0 0.00 0.00 0.00 68 1012.2
20260505150957 64 204 14.0 25.0 0.00 0.00 0.00 67 1012.0
20260505150455 64 203 13.0 21.0 0.00 0.00 0.00 67 1012.0
20260505140455 63 221 12.0 21.0 0.00 0.00 0.00 69 1011.8
20260505124955 60 211 13.0 28.0 0.00 0.00 0.00 73 1011.7
20260505124455 60 193 7.0 26.0 0.00 0.00 0.00 74 1011.8
20260505123955 60 206 10.0 26.0 0.00 0.00 0.00 74 1011.8
20260505123455 60 211 8.0 24.0 0.00 0.00 0.00 74 1011.9
20260505122955 60 204 10.0 22.0 0.00 0.00 0.00 74 1011.8
20260505122455 59 206 15.0 26.0 0.00 0.00 0.00 74 1011.8
20260505121955 59 203 10.0 23.0 0.00 0.00 0.00 75 1011.9
20260505121455 59 212 12.0 23.0 0.00 0.00 0.00 75 1011.9
20260505120955 59 199 10.0 20.0 0.00 0.00 0.00 75 1012.0
20260505120455 59 209 9.0 19.0 0.00 0.00 0.00 75 1012.1
20260505115955 59 220 10.0 22.0 0.00 0.00 0.00 76 1012.0
20260505115455 58 211 14.0 27.0 0.00 0.00 0.00 76 1011.9
20260505114955 58 202 10.0 24.0 0.00 0.00 0.00 76 1011.8
20260505114454 58 200 9.0 20.0 0.00 0.00 0.00 77 1011.9
20260505113955 58 208 14.0 23.0 0.00 0.00 0.00 77 1012.0
20260505113455 57 208 8.0 21.0 0.00 0.00 0.00 78 1011.9
20260505112954 57 206 10.0 23.0 0.00 0.00 0.00 78 1012.0
20260505112454 57 203 9.0 22.0 0.00 0.00 0.00 78 1012.0
20260505111954 57 193 7.0 21.0 0.00 0.00 0.00 79 1011.9
20260505111454 56 195 8.0 22.0 0.00 0.00 0.00 79 1011.9
20260505110954 56 191 9.0 22.0 0.00 0.00 0.00 79 1011.8
20260505110454 56 194 8.0 20.0 0.00 0.00 0.00 80 1011.8
20260505101954 54 202 7.0 18.0 0.00 0.00 0.00 83 1011.9
20260505101454 53 197 5.0 15.0 0.00 0.00 0.00 84 1011.7
20260505100954 53 191 6.0 17.0 0.00 0.00 0.00 85 1011.6
20260505100454 53 206 8.0 17.0 0.00 0.00 0.00 85 1011.8
20260505095954 52 207 7.0 18.0 0.00 0.00 0.00 86 1011.7
20260505095454 52 200 7.0 16.0 0.00 0.00 0.00 86 1011.7
20260505094954 52 193 8.0 17.0 0.00 0.00 0.00 86 1011.8
20260505094454 52 207 6.0 15.0 0.00 0.00 0.00 86 1011.8
20260505093954 51 194 8.0 16.0 0.00 0.00 0.00 86 1011.8
20260505093454 51 191 5.0 13.0 0.00 0.00 0.00 86 1011.8
20260505092954 51 188 7.0 18.0 0.00 0.00 0.00 86 1011.6
20260505092454 51 196 6.0 12.0 0.00 0.00 0.00 86 1011.7
20260505091954 51 188 6.0 12.0 0.00 0.00 0.00 86 1011.6
20260505091454 51 203 6.0 16.0 0.00 0.00 0.00 86 1011.7
20260505090954 51 201 8.0 12.0 0.00 0.00 0.00 86 1011.7
20260505090454 51 203 5.0 12.0 0.00 0.00 0.00 86 1011.6
20260505085954 51 195 7.0 12.0 0.00 0.00 0.00 86 1011.6
20260505085454 51 193 6.0 13.0 0.00 0.00 0.00 85 1011.7
20260505084954 51 196 7.0 10.0 0.00 0.00 0.00 85 1011.7
20260505084454 52 206 6.0 11.0 0.00 0.00 0.00 85 1011.7
20260505083954 52 205 5.0 12.0 0.00 0.00 0.00 85 1011.6
20260505083454 52 196 6.0 14.0 0.00 0.00 0.00 84 1011.7
20260505082954 52 206 5.0 12.0 0.00 0.00 0.00 84 1011.7
20260505082454 52 200 7.0 15.0 0.00 0.00 0.00 84 1011.7
20260505081954 52 207 8.0 16.0 0.00 0.00 0.00 84 1011.8
20260505081454 52 208 5.0 14.0 0.00 0.00 0.00 83 1011.9
20260505080954 52 209 9.0 15.0 0.00 0.00 0.00 83 1011.9
20260505080454 53 209 8.0 14.0 0.00 0.00 0.00 83 1011.9
20260505075954 53 217 9.0 15.0 0.00 0.00 0.00 83 1011.9
20260505075454 53 212 11.0 16.0 0.00 0.00 0.00 83 1011.9
20260505074954 53 211 7.0 22.0 0.00 0.00 0.00 83 1012.0
20260505074454 53 219 12.0 21.0 0.00 0.00 0.00 83 1012.0
20260505073954 53 218 12.0 22.0 0.00 0.00 0.00 83 1012.1
20260505073454 53 214 7.0 18.0 0.00 0.00 0.00 83 1012.0
20260505072954 53 217 10.0 20.0 0.00 0.00 0.00 83 1012.0
20260505072454 53 214 10.0 18.0 0.00 0.00 0.00 83 1011.9
20260505071954 53 222 10.0 19.0 0.00 0.00 0.00 83 1011.9
20260505071454 53 224 9.0 23.0 0.00 0.00 0.00 83 1011.9
20260505070954 53 217 10.0 25.0 0.00 0.00 0.00 83 1011.9
20260505070454 53 215 10.0 18.0 0.00 0.00 0.00 83 1011.9
20260505065954 53 212 10.0 20.0 0.00 0.00 0.00 83 1011.9
20260505065454 53 210 9.0 18.0 0.00 0.00 0.00 82 1011.9
20260505064954 53 220 11.0 20.0 0.00 0.00 0.00 82 1011.8
20260505064454 53 214 11.0 20.0 0.00 0.00 0.00 82 1011.7
20260505063954 53 217 10.0 25.0 0.00 0.00 0.00 82 1011.8
20260505063454 53 217 12.0 26.0 0.00 0.00 0.00 82 1011.8
20260505062955 53 220 15.0 23.0 0.00 0.00 0.00 82 1011.7
20260505062507 53 220 12.0 26.0 0.00 0.00 0.00 82 1011.7
20260505061954 53 220 13.0 25.0 0.00 0.00 0.00 82 1011.8
20260505061454 53 224 10.0 21.0 0.00 0.00 0.00 82 1011.8
20260505060954 53 221 8.0 20.0 0.00 0.00 0.00 82 1011.8
20260505060454 53 221 11.0 17.0 0.00 0.00 0.00 83 1011.9
20260505055954 53 219 10.0 15.0 0.00 0.00 0.00 83 1011.9
20260505055454 53 226 10.0 19.0 0.00 0.00 0.00 83 1011.9
20260505054954 53 212 9.0 17.0 0.00 0.00 0.00 83 1011.9